Location: Arrington
(35.8681°N, 86.7092°W)
Time: 04:41:26
(UTC+00:00)

ATLAS 2AS CENTAUR R/B - Pass Details

Date: 24 February 2020
Orbit: 929 x 1283 km, 63.7° (Epoch: 03 April)

Event Time Altitude Azimuth Distance (km) Brightness Sun altitude
Rises 09:50:04 0° 336° (NNW) 4,197 5.7 -31.8°
Reaches altitude 10° 09:54:47 10° 1° (N) 3,168 5.3 -30.9°
Maximum altitude 09:58:27 14° 30° (NNE) 2,821 5.3 -30.1°
Drops below altitude 10° 10:02:00 10° 59° (ENE) 3,046 5.9 -29.4°
Sets 10:06:20 0° 84° (E) 3,920 6.9 -28.6°
